Change the Weather History Date:

Tuesday, November 20, 2012

  Actual Average (KLWV) Record (KLWV)
Temperature  
Mean Temperature 54 °F 44 °F  
Max Temperature 60 °F 54 °F 71 °F (2003)
Min Temperature 47 °F 36 °F 16 °F (2014)
Degree Days  
Heating Degree Days 12 21  
Month to date heating degree days 331  
Since 1 July heating degree days 628  
Cooling Degree Days 0 0  
Month to date cooling degree days 0  
Year to date cooling degree days 1386  
Growing Degree Days 4 (Base 50)    
Moisture  
Dew Point 45 °F    
Average Humidity 74    
Maximum Humidity 97    
Minimum Humidity 57    
Precipitation  
Precipitation 0.00 in 0.14 in 2.16 in (1991)
Month to date precipitation 2.56  
Year to date precipitation 39.08  
Sea Level Pressure  
Sea Level Pressure 30.13 in    
Wind  
Wind Speed 2 mph (WNW)    
Max Wind Speed 6 mph    
Max Gust Speed -    
Visibility 10 miles    
Events      
T = Trace of Precipitation, MM = Missing Value Source: NWS Daily Summary

Daily Weather History Graph

Daily Weather History Graph

Search for Another Location

Airport or City:

Trip Planner

Search our weather history database for the weather conditions in past years. The results will help you decide how hot, cold, wet, or windy it might be!

Date:

Astronomy

Nov. 20, 2012 Rise Set
Actual Time 6:39 AM CST 4:32 PM CST
Civil Twilight 6:10 AM CST 5:01 PM CST
Nautical Twilight 5:38 AM CST 5:34 PM CST
Astronomical Twilight 5:06 AM CST 6:06 PM CST
Moon 12:15 PM CST (11/20) No Moon Set
Length of Visible Light 10h 51m
Length of Day
9h 53m
First Quarter, 51% of the Moon is Illuminated
Nov 20
First Quarter
Nov 28
Full
Dec 6
Last Quarter
Dec 13
New
Dec 19
First Quarter

Hourly Weather History & Observations

Time (CST) Temp. Dew Point Humidity Pressure Visibility Wind Dir Wind Speed Gust Speed Precip Events Conditions
12:15 AM 47.3 °F 40.6 °F 78% 30.16 in 10.0 mi South 3.5 mph - N/A   Overcast
12:35 AM 48.4 °F 41.9 °F 78% 30.16 in 10.0 mi South 3.5 mph - N/A   Overcast
12:55 AM 48.9 °F 41.9 °F 77% 30.16 in 10.0 mi South 3.5 mph - N/A   Overcast
1:15 AM 50.0 °F 41.4 °F 72% 30.15 in 10.0 mi Calm Calm - N/A   Overcast
1:55 AM 51.3 °F 41.5 °F 69% 30.15 in 10.0 mi SSE 4.6 mph - N/A   Overcast
2:15 AM 51.1 °F 42.3 °F 72% 30.15 in 10.0 mi Calm Calm - N/A   Overcast
5:55 AM 48.6 °F 41.9 °F 78% 30.12 in 10.0 mi Calm Calm - N/A   Overcast
6:15 AM 49.3 °F 41.5 °F 75% 30.12 in 10.0 mi Calm Calm - N/A   Overcast
6:35 AM 50.2 °F 41.7 °F 73% 30.12 in 10.0 mi Calm Calm - N/A   Overcast
6:55 AM 48.7 °F 42.1 °F 78% 30.12 in 10.0 mi Calm Calm - N/A   Overcast
7:15 AM 48.6 °F 41.9 °F 78% 30.12 in 10.0 mi Calm Calm - N/A   Mostly Cloudy
7:35 AM 48.2 °F 43.5 °F 84% 30.13 in 10.0 mi Calm Calm - N/A   Overcast
7:55 AM 50.9 °F 43.5 °F 76% 30.13 in 10.0 mi Calm Calm - N/A   Overcast
8:15 AM 52.2 °F 43.3 °F 72% 30.13 in 10.0 mi Calm Calm - N/A   Overcast
8:35 AM 54.0 °F 42.8 °F 66% 30.13 in 10.0 mi Calm Calm - N/A   Overcast
8:55 AM 55.6 °F 43.2 °F 63% 30.13 in 10.0 mi Calm Calm - N/A   Overcast
9:15 AM 56.7 °F 43.2 °F 61% 30.13 in 10.0 mi SW 4.6 mph - N/A   Overcast
9:35 AM 57.4 °F 43.3 °F 59% 30.14 in 10.0 mi West 5.8 mph - N/A   Overcast
9:55 AM 58.5 °F 43.7 °F 58% 30.14 in 10.0 mi West 4.6 mph - N/A   Mostly Cloudy
10:15 AM 59.2 °F 44.1 °F 57% 30.14 in 10.0 mi WNW 3.5 mph - N/A   Mostly Cloudy
10:35 AM 58.8 °F 44.2 °F 58% 30.14 in 10.0 mi WNW 5.8 mph - N/A   Overcast
10:55 AM 57.7 °F 44.1 °F 60% 30.13 in 10.0 mi NW 3.5 mph - N/A   Overcast
11:15 AM 57.6 °F 44.4 °F 62% 30.12 in 10.0 mi Calm Calm - N/A   Overcast
11:35 AM 58.1 °F 44.6 °F 61% 30.11 in 10.0 mi Calm Calm - N/A   Overcast
11:55 AM 58.6 °F 44.6 °F 60% 30.10 in 10.0 mi Calm Calm - N/A   Overcast
12:15 PM 59.7 °F 45.1 °F 59% 30.10 in 10.0 mi Calm Calm - N/A   Overcast
12:35 PM 59.4 °F 45.0 °F 59% 30.09 in 10.0 mi Calm Calm - N/A   Overcast
12:55 PM 59.4 °F 45.0 °F 59% 30.09 in 10.0 mi Calm Calm - N/A   Overcast
1:15 PM 60.3 °F 45.7 °F 59% 30.09 in 10.0 mi NW 3.5 mph - N/A   Overcast
1:35 PM 60.1 °F 45.9 °F 59% 30.08 in 10.0 mi Calm Calm - N/A   Overcast
1:55 PM 59.9 °F 45.9 °F 60% 30.08 in 10.0 mi Calm Calm - N/A   Overcast
2:15 PM 60.3 °F 46.6 °F 61% 30.08 in 10.0 mi Calm Calm - N/A   Overcast
2:35 PM 60.3 °F 46.9 °F 61% 30.09 in 10.0 mi North 3.5 mph - N/A   Overcast
2:55 PM 59.9 °F 47.1 °F 63% 30.09 in 10.0 mi NNW 3.5 mph - N/A   Overcast
3:15 PM 60.1 °F 46.6 °F 61% 30.09 in 10.0 mi North 3.5 mph - N/A   Overcast
3:35 PM 59.9 °F 47.1 °F 63% 30.10 in 10.0 mi North 5.8 mph - N/A   Overcast
3:55 PM 59.0 °F 47.5 °F 66% 30.10 in 10.0 mi Calm Calm - N/A   Overcast
4:15 PM 57.9 °F 47.5 °F 68% 30.10 in 10.0 mi NNW 3.5 mph - N/A   Overcast
4:35 PM 57.2 °F 46.8 °F 68% 30.11 in 10.0 mi Calm Calm - N/A   Overcast
4:55 PM 55.0 °F 46.2 °F 72% 30.12 in 10.0 mi Calm Calm - N/A   Scattered Clouds
5:15 PM 52.9 °F 46.2 °F 78% 30.12 in 10.0 mi Calm Calm - N/A   Clear
5:35 PM 50.2 °F 46.9 °F 89% 30.13 in 10.0 mi Calm Calm - N/A   Clear
5:55 PM 50.0 °F 46.6 °F 88% 30.14 in 10.0 mi Calm Calm - N/A   Mostly Cloudy
6:15 PM 48.6 °F 45.0 °F 87% 30.14 in 10.0 mi Calm Calm - N/A   Overcast
6:35 PM 50.0 °F 46.8 °F 89% 30.14 in 10.0 mi Calm Calm - N/A   Overcast
6:55 PM 50.0 °F 47.7 °F 92% 30.15 in 10.0 mi Calm Calm - N/A   Overcast
7:15 PM 51.1 °F 49.1 °F 93% 30.15 in 10.0 mi Calm Calm - N/A   Overcast
7:35 PM 51.4 °F 48.2 °F 89% 30.16 in 10.0 mi Calm Calm - N/A   Overcast
7:55 PM 51.6 °F 48.0 °F 87% 30.16 in 10.0 mi Calm Calm - N/A   Overcast
8:15 PM 51.1 °F 49.1 °F 93% 30.16 in 10.0 mi Calm Calm - N/A   Overcast
8:55 PM 51.3 °F 47.8 °F 88% 30.17 in 10.0 mi Calm Calm - N/A   Overcast
9:15 PM 50.9 °F 48.0 °F 90% 30.18 in 10.0 mi NW 3.5 mph - N/A   Overcast
9:35 PM 50.9 °F 49.1 °F 94% 30.17 in 10.0 mi Calm Calm - N/A   Overcast
9:55 PM 49.1 °F 47.8 °F 95% 30.18 in 10.0 mi NW 3.5 mph - N/A   Overcast
10:15 PM 49.1 °F 48.2 °F 97% 30.18 in 10.0 mi Calm Calm - N/A   Overcast
10:35 PM 49.8 °F 48.6 °F 95% 30.18 in 10.0 mi Calm Calm - N/A   Overcast
10:55 PM 50.2 °F 48.6 °F 94% 30.18 in 10.0 mi NW 3.5 mph - N/A   Overcast
11:15 PM 50.0 °F 48.4 °F 94% 30.18 in 10.0 mi NW 3.5 mph - N/A   Overcast
11:55 PM 51.3 °F 48.6 °F 90% 30.18 in 10.0 mi Calm Calm - N/A   Overcast